STARLINK-11393, 62016

Orbit data source: Space-Track

STARLINK-11393, 62016 is a payload satellite owned by SpaceX/Seattle (US) in LEO that was launched on Mon, 18 Nov 2024 UTC via an FALCON 9 launch vehicle from the Air Force Western Test Range (AFWTR). Payloads include a variety of satellites, spacecraft, and rockets equipped with specific instruments for various scientific and technological missions. These include communications satellites like Starlink; space stations such as the ISS; scientific satellites like the Hubble; Earth observation satellites from companies like Planet Labs, Umbra, and HawkEye 360; GPS; miniature CubeSats for education and research; and military/defense satellites.

Loading next visibility...
STARLINK-11393 details
Identifier
62016, 2024-213J
Orbit
LEO
Last TLE update19 hours ago
Origin
Flag of USSpaceX/Seattle (US)
ManufacturerSpaceX/Seattle
MissionOperational spacecraft
Bus & MotorSTARLINK V2M, Unknown motor
Mass730 kg wet, ~700 kg dry
Launch date (UTC)
2024-11-18 (1 month ago)
Launch vehicle
FALCON 9
Launch site
Air Force Western Test Range (AFWTR)
Object type
Payload
Rocket body
Debris
Shape & HBRUnknown
Radar Cross SectionLarge (>1 m²)

Expand to show TLE details & history

TLE from 19 hours ago
0 STARLINK-11393
1 62016U 24213J   24360.63755170 -.00001367  00000-0 -43479-5 0  9997
2 62016  53.1545  48.0956 0002250  40.1703 319.9483 15.76713688  6865
Epoch: 2024-12-25T15:18Z
Definitive object data (Epoch: 2024-12-25T15:18:04.466Z)
Latitude-0.00011°
Longitude83.94847°
Altitude339.519 km
Speed7.707 km/s
True Right ascension03h 12m 22s
True Declination0° 00' 00"
Sunlit
Object was in full shadow at TLE epoch
Visualization TLE readout
Latitude-36.52182°
Longitude-66.55068°
Altitude353.004 km
Speed7.696 km/s
Apparent Right ascension19h 23m 13s
Apparent Declination-43° 42' 06"
Sunlit
Object is in daylight
Visualization observer readout
Local Sidereal Time09:52:17
Azimuth110.162° ESE
Elevation-62.204°
Doppler factor1
Orbital elements
Apogee altitude341.533 km
Perigee altitude338.51 km
Semi-major axis6,718.158 km
Eccentricity0.000225
Inclination53.1545°
RAAN48.0956°
Arg. of periapsis40.1703°
True anomaly319.93171°
Mean anomaly319.9483°
Eccentric anomaly319.94°
Mean motion3.94156 °/min
BSTAR-0.0000043479
Orbital period91.33 mins
Loading maneuver chart data...
Loading historical data...
Loading historical data...
Loading historical data...
Loading historical data...
Loading historical data...
Loading historical data...
Loading historical data...

STARLINK-11393 Visibility forecast

Observer location: undefined°, undefined

Span
Click to sort rows by Start time (UTC) header in descending order
Start Az.
Max El. time (UTC)
Max El. Az.
Max El.
End time (UTC)
End Az.
4 mins2024-12-26 13:07:05.805Z297.667° NW2024-12-26 13:08:05.805Z266.549° W40.164°2024-12-26 13:11:05.805Z139.866° SSE
4 mins2024-12-27 05:31:05.805Z206.869° SW2024-12-27 05:33:05.805Z108.68° ESE36.499°2024-12-27 05:35:05.805Z61.238° ENE
|